Visibility
15.0 15.0 15.0 9.2 15.0 15.0 15.0 15.0 0.3 12.1 10.1 15.0 10.6 15.0 15.0 15.0 15.0 15.0 15.0 15.0 15.0 15.0 15.0 15.0 15.0 10.4 15.0 12.9 14.0 4.8 14.5 15.0 15.0 15.0 15.0 15.0 15.0 15.0 15.0 15.0 15.0 15.0 15.0 15.0
15.0 15.0 15.0 7.9 15.0 15.0 15.0 15.0 14.9 15.0 10.2 3.9 13.4 11.5 15.0 15.0 15.0 15.0 15.0 15.0 15.0 15.0 15.0 15.0 15.0 15.0 15.0 15.0 15.0 15.0 14.4 4.7 3.2 15.0 15.0 15.0 15.0 15.0 15.0 15.0 15.0 15.0 15.0 15.0
15.0 15.0 15.0 15.0 15.0 15.0 15.0 15.0 15.0 0.4 12.9 15.0 13.5 14.0 15.0 15.0 15.0 15.0 15.0 15.0 15.0 15.0 15.0 15.0 15.0 15.0 15.0 15.0 15.0 15.0 15.0 15.0 15.0 15.0 15.0 15.0 15.0 15.0 15.0 15.0 15.0 15.0 15.0 15.0
7.5 15.0 0.9 15.0 15.0 15.0 15.0 9.4 14.2 15.0 15.0 15.0 15.0 15.0 15.0 15.0 15.0 15.0 15.0 15.0 15.0 15.0 15.0 15.0 15.0 15.0 15.0 15.0 15.0 15.0 15.0 15.0 15.0 15.0 15.0 15.0 15.0 15.0 15.0 15.0 15.0 15.0 15.0 15.0
2.4 13.9 12.0 15.0 15.0 15.0 15.0 15.0 15.0 15.0 15.0 15.0 13.6 15.0 15.0 15.0 15.0 15.0 15.0 15.0 15.0 15.0 15.0 15.0 15.0 15.0 15.0 15.0 15.0 15.0 15.0 15.0 15.0 15.0 15.0 15.0 15.0 10.6 15.0 15.0 15.0 15.0 15.0 13.1
4.6 15.0 4.6 15.0 15.0 15.0 15.0 15.0 15.0 15.0 15.0 15.0 15.0 15.0 15.0 15.0 15.0 15.0 15.0 15.0 15.0 15.0 15.0 15.0 15.0 15.0 15.0 15.0 15.0 15.0 15.0 15.0 15.0 15.0 15.0 15.0 15.0 6.1 6.4 15.0 15.0 5.8 0.4 0.3
15.0 15.0 15.0 15.0 15.0 15.0 11.1 14.5 15.0 15.0 15.0 15.0 15.0 15.0 15.0 15.0 15.0 15.0 15.0 15.0 15.0 15.0 15.0 15.0 15.0 15.0 15.0 15.0 15.0 15.0 15.0 15.0 15.0 15.0 15.0 15.0 15.0 9.7 10.4 15.0 0.4 0.1 0.1 0.2
11.6 15.0 12.8 15.0 15.0 13.9 15.0 15.0 15.0 15.0 15.0 15.0 15.0 15.0 15.0 15.0 15.0 15.0 15.0 15.0 15.0 15.0 15.0 15.0 15.0 15.0 15.0 15.0 15.0 15.0 15.0 15.0 15.0 15.0 15.0 15.0 7.5 1.6 0.5 1.4 0.1 0.1 0.1 0.1
15.0 15.0 13.8 6.9 15.0 15.0 15.0 15.0 15.0 15.0 15.0 15.0 15.0 15.0 15.0 15.0 15.0 15.0 15.0 15.0 15.0 15.0 15.0 15.0 15.0 15.0 15.0 15.0 15.0 15.0 15.0 15.0 15.0 15.0 15.0 15.0 15.0 7.4 0.1 0.1 0.1 0.1 0.1 0.1
3.9 12.6 15.0 15.0 13.3 15.0 15.0 15.0 11.0 15.0 15.0 15.0 15.0 15.0 15.0 15.0 15.0 15.0 15.0 15.0 15.0 15.0 15.0 15.0 15.0 15.0 15.0 15.0 15.0 15.0 15.0 15.0 15.0 15.0 15.0 15.0 15.0 14.9 6.0 12.9 9.9 2.2 0.9 1.1
9.7 6.4 0.7 12.5 4.1 15.0 11.6 15.0 15.0 15.0 15.0 15.0 15.0 15.0 15.0 15.0 15.0 15.0 15.0 15.0 15.0 15.0 15.0 15.0 15.0 15.0 15.0 14.2 15.0 15.0 15.0 15.0 13.7 13.2 15.0 15.0 1.2 0.5 1.4 0.5 0.8 0.8 0.3 0.4
0.0 0.1 0.1 0.1 9.3 10.9 5.7 14.6 15.0 15.0 15.0 15.0 15.0 15.0 15.0 15.0 15.0 15.0 12.4 15.0 15.0 15.0 15.0 8.5 9.1 6.0 6.8 7.2 13.4 11.4 14.0 5.8 1.3 0.7 0.4 0.7 12.6 1.4 0.2 0.2 0.7 0.7 0.3 0.3
0.1 2.4 5.9 7.5 5.7 7.4 15.0 15.0 15.0 15.0 15.0 15.0 15.0 15.0 15.0 15.0 15.0 15.0 15.0 15.0 2.2 1.1 1.4 0.9 0.8 0.6 0.5 1.0 5.8 9.4 5.8 7.8 14.6 7.9 2.7 0.4 0.1 0.1 0.2 0.9 1.2 0.1 0.1 0.1
11.6 13.1 15.0 15.0 15.0 15.0 15.0 15.0 15.0 15.0 15.0 15.0 15.0 15.0 15.0 14.7 14.9 5.2 0.9 0.3 0.4 2.5 2.7 2.3 3.0 0.3 0.2 0.7 5.8 2.3 4.2 3.1 0.4 0.2 0.4 0.7 0.3 0.1 0.1 0.1 0.1 0.1 0.2 0.2
15.0 15.0 15.0 15.0 15.0 15.0 15.0 15.0 15.0 15.0 15.0 15.0 15.0 15.0 15.0 11.5 3.3 0.7 0.4 0.5 0.7 3.8 3.5 9.0 4.2 0.3 0.4 4.6 7.9 2.7 2.1 0.9 0.4 0.1 0.1 0.1 0.1 0.1 0.1 0.1 0.1 0.1 0.2 0.2
15.0 15.0 15.0 15.0 15.0 15.0 15.0 15.0 15.0 8.7 15.0 15.0 15.0 6.7 5.9 12.6 1.6 0.5 0.3 0.3 1.4 0.3 0.5 2.5 0.9 0.1 0.7 3.9 14.9 8.1 0.3 0.1 0.2 0.2 0.1 0.1 0.1 0.2 0.2 0.1 0.1 0.2 0.1 0.1
15.0 14.5 14.7 9.0 15.0 15.0 1.5 5.6 7.3 3.0 4.2 1.5 0.3 0.6 2.2 1.1 0.6 0.4 0.2 0.2 0.5 0.6 0.8 0.9 0.3 0.8 0.4 0.6 0.5 0.7 0.6 0.6 0.4 0.2 0.1 0.1 0.1 0.2 0.2 0.2 0.2 0.2 0.1 1.6
2.7 2.0 3.1 2.7 4.6 15.0 6.0 12.3 13.0 11.4 1.5 0.7 2.7 2.9 0.9 0.3 0.1 0.2 0.3 0.6 2.2 8.8 15.0 15.0 15.0 15.0 15.0 8.7 8.1 5.6 5.9 15.0 15.0 15.0 15.0 3.8 2.9 5.0 2.0 3.7 9.1 5.0 3.5 6.7
7.3 3.0 4.2 10.7 15.0 14.2 7.3 1.6 0.5 0.5 0.5 1.7 7.9 2.1 8.5 6.3 2.5 1.0 4.4 14.6 15.0 15.0 14.8 15.0 15.0 15.0 15.0 15.0 15.0 15.0 15.0 15.0 15.0 15.0 15.0 15.0 15.0 12.8 12.3 15.0 10.7 14.7 15.0 15.0
13.6 7.9 5.3 1.4 8.8 12.0 1.1 3.0 8.7 3.4 4.1 15.0 15.0 14.5 0.9 0.3 6.7 15.0 15.0 7.8 14.8 14.8 15.0 15.0 15.0 15.0 15.0 15.0 15.0 15.0 15.0 15.0 15.0 15.0 15.0 15.0 5.9 1.5 1.4 1.9 0.7 0.5 0.4 0.6
1.0 1.8 2.1 2.2 0.6 1.6 4.2 15.0 14.8 1.7 3.6 15.0 15.0 15.0 15.0 15.0 15.0 15.0 15.0 3.9 15.0 15.0 15.0 15.0 14.8 12.5 15.0 15.0 15.0 15.0 15.0 15.0 7.4 1.6 1.3 3.8 5.3 2.8 1.7 2.3 1.8 1.2 0.4 0.8
3.8 2.1 0.8 2.5 1.5 0.6 3.9 11.1 15.0 15.0 13.6 7.2 1.2 3.1 11.2 9.6 15.0 15.0 15.0 11.0 15.0 15.0 15.0 15.0 14.4 15.0 15.0 15.0 15.0 14.8 15.0 15.0 15.0 15.0 15.0 15.0 12.8 15.0 1.3 0.7 4.0 15.0 1.2 1.4
1.1 1.3 8.6 15.0 6.0 2.3 11.9 15.0 15.0 15.0 15.0 13.7 6.8 15.0 15.0 15.0 15.0 15.0 3.7 12.5 15.0 15.0 15.0 15.0 12.9 15.0 15.0 9.7 15.0 15.0 10.0 0.6 2.8 7.3 4.1 3.0 2.3 4.6 14.6 2.0 1.3 4.2 8.8 1.5
1.1 10.7 15.0 15.0 14.7 13.9 8.9 15.0 15.0 15.0 15.0 15.0 15.0 2.9 1.0 2.2 1.2 15.0 15.0 8.4 12.4 9.9 15.0 15.0 4.3 13.0 15.0 14.7 0.6 13.4 15.0 15.0 11.0 2.3 4.2 6.8 3.2 3.0 10.6 4.4 15.0 15.0 1.3 1.5
6.1 0.8 4.2 14.8 15.0 15.0 15.0 15.0 15.0 15.0 15.0 15.0 15.0 15.0 15.0 15.0 15.0 15.0 15.0 15.0 5.6 2.2 15.0 15.0 9.1 8.8 8.5 3.7 15.0 0.8 4.4 6.2 11.3 15.0 0.7 14.2 1.5 1.7 10.5 13.3 2.0 0.5 1.0 5.3
15.0 15.0 15.0 15.0 15.0 15.0 15.0 14.1 5.5 0.4 7.3 4.3 5.4 11.4 15.0 15.0 5.0 3.5 8.4 8.8 15.0 6.7 0.7 15.0 15.0 15.0 15.0 11.6 15.0 15.0 1.4 15.0 15.0 15.0 8.1 11.9 9.2 1.3 8.2 5.2 4.4 6.6 2.6 2.3
15.0 15.0 15.0 15.0 15.0 15.0 15.0 10.3 4.9 3.8 4.7 1.6 8.0 2.5 1.2 2.5 5.6 3.4 14.2 14.8 15.0 15.0 15.0 2.2 5.9 15.0 15.0 15.0 15.0 15.0 15.0 9.7 15.0 15.0 10.6 2.1 8.4 2.2 5.0 6.6 14.8 15.0 3.5 4.7